Powrót do katalogu

SL-8 R/B

AktywnyPO
NORAD 9062·ROCKET BODY·🇷🇺 Russia

Wystrzelony Jul 29, 1976 z Plesetsk Cosmodrome

Loading…

Następne Przeloty (najbliższe 24 godziny)

TLE

ŚwieżeSource: Space-Track

Epoka: Sep 14, 2026, 14:56 UTC

1 09062U 76078B   26257.62267332  .00000002  00000-0 -13223-4 0  9996
2 09062  82.9324 308.9144 0029829 108.2447  55.8435 13.78739927520689

Śledź SL-8 R/B w czasie rzeczywistym z AllMySat

Download on the App Store